sat.trackr.live / text

‹ back to catalog

STARLINK-2389

NORAD 47808 · 2021-018X

PAYLOAD ACTIVE UNKNOWN

§ Identity

Operator
Country
US
Launch date
2021-03-11
Launch site
AFETR
Launch vehicle
Mass (kg)
RCS (m²)

Purposes: comms

External: N2YO · Heavens-Above · Gunter

§ Orbital elements

Epoch: 2026-09-09T20:47:36.667104Z

Period
94.01 min
Inclination
53.1607°
Eccentricity
0.0001176
Mean motion
15.31709695 rev/d
Perigee alt
469.9 km
Apogee alt
471.5 km
Semi-major
6,848.8 km
B*
1.0792e-4
RAAN
105.5374°
Arg perigee
90.7181°
Mean anomaly
269.3955°
Rev number
30,500

§ Raw data

STARLINK-23891 47808U 21018X   26252.86639661  .00002986  00000+0  10792-3 0  99972 47808  53.1607 105.5374 0001176  90.7181 269.3955 15.31709695305000

JSON: /api/v1/satellites/47808 · /tle

For live sub-satellite position, see the globe view (requires WebGL).

§ Visibility from observer

Set your observer location to see the next 7 days of passes ≥ 10°. The values pass through the URL so the page stays shareable.

No JS? Fill the form by hand. The geolocation button needs JavaScript.